Location: Clansayes
(44.3718°N, 4.8061°E)
Time: 09:46:33
(UTC+00:00)

Daily predictions for brighter satellites

Satellite Brightness Start Highest point End
(mag) Time Altitude Azimuth Time Altitude Azimuth Time Altitude Azimuth
Cosmos 2369 Rocket 3.8 17:02:45 10° WSW 17:07:56 36° NW 17:13:11 10° NNE
Cosmos 1850 Rocket 4.0 17:02:56 10° NNW 17:08:15 70° ENE 17:13:33 10° SSE
Cosmos 1939 Rocket 3.7 17:06:17 10° SE 17:09:43 28° ENE 17:13:09 10° N
Cosmos 2297 Rocket 3.5 17:05:47 10° N 17:10:04 21° NE 17:14:19 10° E
NOAA 12 4.2 17:07:29 10° SSE 17:12:46 90° SW 17:18:07 10° NNW
COSMO-SKYMED 1 3.3 17:10:49 10° NNE 17:14:44 31° E 17:18:36 10° SSE
Cosmos 1452 Rocket 3.7 17:10:02 10° SSW 17:15:17 79° WNW 17:20:35 10° NNE
Okean O Rocket 1.9 17:12:06 10° S 17:16:28 74° WSW 17:20:51 10° NNW
Cosmos 1689 Rocket 3.2 17:15:05 10° NE 17:17:29 23° E 17:19:51 10° SSE
Aureole 3 Rocket 4.3 17:14:56 10° SE 17:17:38 19° E 17:20:51 10° NE
H-2A R/B 3.5 17:16:06 10° ESE 17:19:46 19° ENE 17:23:26 10° NNE
H-2A R/B 3.5 17:18:18 10° N 17:22:12 39° WNW 17:26:02 10° SW
Cosmos 1328 3.7 17:18:31 10° N 17:22:29 79° E 17:26:26 10° S
Cosmos 2098 Rocket 4.1 17:21:23 10° NNW 17:24:19 35° W 17:26:59 10° SSW
IRS-1C Rocket 4.3 17:19:36 10° SE 17:24:40 50° ENE 17:29:45 10° N
Cosmos 1356 Rocket 4.3 17:21:33 10° SSW 17:25:43 55° WNW 17:29:58 10° N
CORIOLIS 4.4 17:20:37 10° S 17:25:57 76° WSW 17:31:20 10° NNW
ADEOS Rocket 4.0 17:20:17 10° N 17:26:24 56° WNW 17:33:10 10° SW
Cosmos 1340 4.1 17:24:08 10° NNE 17:26:50 18° ENE 17:29:32 10° ESE
CZ-4 R/B 2.3 17:24:15 10° ESE 17:27:28 25° ENE 17:30:40 10° NNE
Cosmos 1825 Rocket 3.6 17:24:24 10° N 17:28:50 61° E 17:33:12 10° SSE
ERS-2 2.5 17:25:54 10° N 17:29:31 69° WNW 17:33:08 10° SSW
YAOGAN 1 3.5 17:27:41 10° ESE 17:31:16 26° ENE 17:34:52 10° N
USA 281 4.0 17:25:34 10° S 17:32:01 58° WSW 17:38:30 10° NNW
Lacrosse 5 3.5 17:29:37 10° WNW 17:33:49 26° NNW 17:38:04 10° NE
Cosmos 2219 3.9 17:30:38 10° N 17:35:48 33° NE 17:40:56 10° ESE
Meteor 2-21 Rocket 4.4 17:30:24 10° N 17:36:35 65° E 17:42:39 10° SSE
CZ-4B R/B 2.2 17:37:42 10° N 17:40:52 51° WNW 17:43:57 10° SSW
SAR-Lupe-4 3.5 17:37:47 10° NNE 17:41:24 86° ESE 17:44:58 10° SSW
Cosmos 1400 Rocket 3.6 17:37:50 10° SSE 17:41:30 32° E 17:45:11 10° NNE
Cosmos 44 3.4 17:38:55 10° S 17:43:10 47° ESE 17:47:38 10° NE
Okean-O 2.9 17:40:16 10° SE 17:44:29 45° ENE 17:48:43 10° N
Cosmos 1726 Rocket 3.5 17:40:13 10° S 17:44:29 62° E 17:48:48 10° NNE
Cosmos 1758 Rocket 4.0 17:41:42 10° NNW 17:46:06 66° W 17:50:24 10° S
USA 306 4.5 17:47:00 10° NW 17:50:30 23° N 17:52:49 16° NE
Aureole 3 2.9 17:54:05 10° S 17:57:22 47° E 18:00:18 10° NNE
Cosmos 1606 Rocket 3.8 17:54:32 10° SSW 17:58:52 72° W 18:03:16 10° N
Cosmos 1331 Rocket 4.0 17:53:45 10° SSW 17:58:55 83° WNW 18:04:06 10° NNE
FALCON 9 DEB 3.4 17:55:57 10° SSW 17:59:01 42° SE 17:59:55 33° E
Nadezhda 2 Rocket 4.5 17:56:17 10° N 18:02:43 81° E 18:09:09 10° S
SKYMED 2 3.7 17:58:34 10° N 18:02:56 80° WNW 18:07:16 10° SSW
Cosmos 2228 3.6 17:59:01 10° SSW 18:03:11 60° W 18:07:25 10° N
GENESIS II 4.3 17:59:38 10° SW 18:03:40 81° NW 18:07:02 15° NNE
ATLAS 5 CENTAUR R/B 4.2 18:02:31 10° NW 18:04:38 13° NNW 18:06:55 10° N
SL-4 R/B 3.2 18:03:20 10° WNW 18:06:25 26° N 18:08:01 20° NE
FALCON 9 DEB 3.1 18:03:29 10° SW 18:06:36 53° SE 18:07:15 43° E
Cosmos 1244 Rocket 4.4 18:00:56 10° N 18:07:09 79° E 18:13:23 10° SSE
CZ-2C R/B 3.3 18:01:28 10° SSE 18:07:11 61° ENE 18:12:49 10° N
Cosmos 292 Rocket 3.7 18:03:17 10° SSW 18:08:05 88° WNW 18:12:56 10° NNE
ARGOS 3.7 18:09:08 21° ESE 18:12:07 37° ENE 18:17:04 10° N
Cosmos 1346 Rocket 3.7 18:10:00 10° N 18:12:50 29° NE 18:12:50 29° NE
Cosmos 2227 Rocket 2.4 18:08:45 10° NNW 18:14:13 47° ENE 18:17:08 26° ESE
FALCON 9 DEB 3.0 18:11:27 10° SW 18:14:38 60° SE 18:15:00 55° ESE
Meteor 2-10 Rocket 3.9 18:09:48 10° SSE 18:14:48 40° E 18:19:39 10° NNE
SeaSat 1 2.8 18:14:54 30° ESE 18:16:44 42° NE 18:21:22 10° NNW
Cosmos 1892 2.8 18:14:33 10° N 18:18:21 50° ENE 18:19:18 39° ESE
CZ-2D R/B 3.7 18:15:10 10° S 18:18:57 61° W 18:22:44 10° NNW
USA 215 3.9 18:17:28 24° ENE 18:20:39 39° NNE 18:26:38 10° NW
Cosmos 1656 3.7 18:16:22 10° S 18:21:46 56° ESE 18:26:21 15° NE
Cosmos 2263 Rocket 4.1 18:22:09 10° NNE 18:24:14 13° NE 18:24:14 13° NE
CSL-04 Rocket 3.7 18:19:27 10° SSE 18:24:56 63° ENE 18:30:25 10° N
Cosmos 968 Rocket 3.6 18:20:10 10° NNW 18:25:16 50° ENE 18:26:57 36° ESE
ATLAS 2AS CENTAUR R/B 4.1 18:19:27 10° NNW 18:25:21 23° NNE 18:27:53 20° NE
Cosmos 2058 Rocket 3.2 18:21:00 10° SSW 18:25:28 77° W 18:30:00 10° N
Cosmos 1302 Rocket 3.9 18:22:09 10° SSW 18:27:25 90° NW 18:32:43 10° NNE
FALCON 9 DEB 2.9 18:26:08 10° SW 18:29:11 79° SW 18:29:11 79° SW
Cosmos 1300 4.3 18:26:26 10° SW 18:29:57 36° WNW 18:33:31 10° N
Cosmos 1486 Rocket 4.0 18:26:28 10° NNW 18:31:46 60° ENE 18:33:47 36° SE
USA 307 4.1 18:28:50 10° NW 18:32:34 28° NNE 18:32:53 28° NNE
Cosmos 1697 Rocket 3.2 18:28:28 10° S 18:32:53 36° ESE 18:32:53 36° ESE
Helios 1A Rocket 4.2 18:32:49 10° S 18:36:44 42° W 18:40:40 10° NNW
USA 308 4.1 18:33:35 10° NW 18:37:21 29° NNE 18:37:27 29° NNE
GEOS 3 Rocket 3.6 18:36:45 27° SE 18:39:46 84° SW 18:45:11 10° NW
Cosmos 1503 Rocket 4.5 18:35:58 10° N 18:40:29 41° NE 18:40:29 41° NE
S3M 3.8 18:36:30 10° S 18:42:34 74° E 18:48:43 10° NNE
DMSP B5D1-3 4.4 18:38:32 10° NNE 18:43:42 89° WNW 18:48:51 10° SSW
CRYOSAT 2 4.2 18:40:26 10° N 18:45:20 81° E 18:50:11 10° S
Milstar 3 4.2 18:45:06 10° SW 18:50:05 22° S 18:51:54 20° SSE
Cosmos 1408 4.5 18:49:13 10° N 18:50:33 21° N 18:50:33 21° N
Cosmos 2297 Rocket 2.3 18:49:03 10° NNW 18:54:43 73° WSW 18:57:46 28° S
H-2A R/B 2.4 18:53:13 10° S 18:58:35 70° WSW 19:04:03 10° NNW
Cosmos 2058 3.4 18:54:42 10° NNW 18:57:58 54° NNW 18:57:58 54° NNW
MOS 1 Rocket 3.5 18:54:42 10° N 18:59:17 68° WNW 19:04:08 10° SSW
CZ-4 R/B 3.4 18:59:06 10° SSW 19:02:25 26° W 19:05:44 10° NW
Cosmos 1340 4.5 18:59:08 10° NNW 19:02:30 31° W 19:05:51 10° SSW
YAOGAN 1 4.3 19:03:24 10° SSW 19:07:15 31° W 19:11:08 10° NNW
Cosmos 1992 Rocket 4.2 19:05:01 10° SSW 19:09:12 59° SSW 19:09:12 59° SSW
Ariane Rocket 4.1 19:18:51 33° N 19:18:51 33° N 19:21:42 10° N
Lacrosse 5 3.8 19:14:37 10° NW 19:18:09 20° N 19:18:09 20° N
Cosmos 2219 4.3 19:14:39 10° NW 19:20:04 43° WSW 19:23:22 22° SSW
BREEZE-M R/B 4.3 19:17:51 10° WNW 19:22:41 64° NNE 19:23:15 62° NE
Cosmos 2082 4.0 19:25:23 10° NNW 19:30:18 65° NW 19:30:18 65° NW
Atlas Centaur 2 4.2 19:25:06 10° SW 19:31:14 27° S 19:31:14 27° S
CZ-4C R/B 4.1 19:32:31 10° NNW 19:37:16 26° NNE 19:37:16 26° NNE
SeaSat 1 4.1 19:54:42 29° W 19:54:42 29° W 19:58:37 10° NW
NOSS 3-4 (A) 4.4 19:48:44 10° NNW 19:53:45 46° N 19:53:45 46° N
NOSS 3-4 (C) 4.4 19:48:50 10° NNW 19:53:51 46° N 19:53:51 46° N
Cosmos 2227 Rocket 3.9 19:53:18 10° NW 19:57:59 28° WSW 19:59:01 26° WSW
USA 215 3.7 20:04:50 56° NW 20:04:50 56° NW 20:09:50 10° NW
Cosmos 2263 Rocket 4.2 20:04:12 10° NNW 20:05:56 20° NNW 20:05:56 20° NNW
ATLAS 2AS CENTAUR R/B 3.8 20:10:30 10° NNW 20:15:19 40° NNW 20:15:19 40° NNW
